www.pogodaiklimat.ru
ПОГОДА в Короне
Время
и дата
08:56 19.07
09:56 19.07
10:56 19.07
11:56 19.07
12:56 19.07
13:56 19.07
14:56 19.07
15:56 19.07
16:56 19.07
17:56 19.07
18:56 19.07
19:56 19.07
20:56 19.07
21:56 19.07
22:56 19.07
23:56 19.07
00:56 20.07
01:56 20.07
02:56 20.07
03:56 20.07
04:56 20.07
05:56 20.07
06:56 20.07
07:56 20.07
08:56 20.07
09:56 20.07
10:56 20.07
11:56 20.07
12:56 20.07
13:56 20.07
14:56 20.07
15:56 20.07
16:56 20.07
17:56 20.07
18:56 20.07
19:56 20.07
20:56 20.07
21:56 20.07
22:56 20.07
23:56 20.07
00:56 21.07
01:56 21.07
02:56 21.07
03:56 21.07
04:56 21.07
05:56 21.07
06:56 21.07
07:56 21.07
Ветер
(напр.,м/с)
Видим. Явления Облачность Т
(С)
Тd
(С)
f
(%)
Тe
(С)
Тes
(С)
Комфортность P
(гПа)
Po
(гПа)
Тmin
(С)
Tmax
(С)
R
(мм)
R24
(мм)
S
(см)
нст 2 16 км ясно +27.8 +18.9 58 +33 +41 очень
душно
1014.9 996.0
З 4 16 км ясно +30.0 +19.4 53 +36 +45 очень
душно
1014.5 995.6 +17.2 +30.0
нст 3 16 км ясно +32.8 +19.4 45 +38 +53 опасность
солнечного
удара
1014.0 995.3
З 5 16 км ясно +33.9 +18.9 41 +39 +49 очень
душно
1013.6 994.7
З 7
{9}
16 км ясно +35.0 +18.9 39 +40 +46 очень
душно
1013.0 994.3
З 5 16 км ясно +34.4 +17.8 37 +38 +48 очень
душно
1012.7 994.0
З 7
{9}
16 км ясно +34.4 +17.8 37 +38 +43 очень
душно
1012.1 993.3
З 7 16 км ясно +32.8 +17.2 39 +36 +39 очень
душно
1011.7 993.0 +30.0 +35.0
З 6 16 км ясно +32.2 +16.7 39 +35 +38 очень
душно
1011.6 993.0
16 км ясно +30.6 +17.2 45 +35 +39 очень
душно
нст 2 16 км ясно +27.2 +16.7 53 +31 +32 душно 1012.4 993.7
З 3 16 км ясно +25.0 +17.2 62 +29 +29 душно 1013.0 994.3
З 2 16 км ясно +23.9 +17.2 66 +28 +28 душно 1013.5 994.7
З 2 16 км ясно +23.3 +17.2 69 +29 +29 душно 1013.7 995.0 +22.8 +33.3
СЗ 2 16 км ясно +21.1 +16.7 76 +25 +25 комфорт 1013.6 994.7
штиль 0 16 км ясно +18.9 +16.1 84 +20 +20 1013.3 994.3
штиль 0 16 км ясно +17.8 +15.6 87 +18 +18 1012.9 994.0
штиль 0 16 км ясно +17.8 +15.6 87 +18 +18 1012.6 994.0
штиль 0 16 км ясно +16.7 +14.4 86 +17 +17 1012.5 993.7
штиль 0 16 км ясно +17.8 +15.6 87 +18 +18 1012.5 993.7 +16.1 +23.3
штиль 0 16 км ясно +16.7 +15.0 90 +17 +17 1013.0 994.3
штиль 0 16 км ясно +18.9 +16.7 87 +20 +20 1013.4 994.7
штиль 0 16 км ясно +23.9 +16.7 64 +27 +29 жарко 1013.8 995.0
штиль 0 16 км ясно +26.7 +16.7 54 +30 +36 душно 1013.7 995.0
СЗ 2 16 км ясно +30.0 +16.7 45 +34 +42 очень
душно
1013.5 994.7
СЗ 3 16 км ясно +32.8 +16.7 38 +36 +47 очень
душно
1013.0 994.3 +16.7 +32.8
З 5 16 км ясно +33.9 +17.8 38 +38 +47 очень
душно
1012.8 994.0
З 6
{8}
16 км ясно +36.1 +13.9 27 +37 +45 душно 1012.3 993.3
СЗ 7 16 км ясно +36.7 +14.4 27 +38 +44 очень
душно
1011.6 993.0
З 6
{9}
16 км ясно +36.7 +14.4 27 +38 +45 очень
душно
1011.1 992.3
З 7 16 км ясно +35.6 +14.4 28 +37 +41 душно 1010.5 992.0
СЗ 8 16 км ясно +35.0 +15.0 30 +36 +39 очень
жарко
1010.0 991.3 +32.8 +36.7
З 7
{10}
16 км ясно +33.3 +15.6 35 +36 +38 очень
душно
1009.6 991.0
16 км ясно +31.1 +15.6 39 +34 +38 душно 1009.9 991.3
З 4 16 км ясно +28.9 +15.6 44 +32 +32 душно 1010.5 991.7
С 2 16 км ясно +26.1 +16.1 54 +29 +29 жарко 1011.3 992.7
З 2 16 км ясно +25.0 +16.7 60 +29 +29 душно 1011.7 993.0
СЗ 2 16 км ясно +23.9 +16.7 64 +27 +27 жарко 1011.8 993.0 +23.9 +35.0
З 3 16 км ясно +23.3 +16.7 66 +28 +28 душно 1011.9 993.3
З 3 16 км ясно +22.2 +17.2 73 +27 +27 душно 1011.8 993.0
З 3 16 км ясно +20.6 +16.7 78 +24 +24 комфорт 1011.5 992.7
З 2 16 км ясно +20.6 +16.7 78 +25 +25 комфорт 1011.2 992.7
З 2 16 км ясно +20.0 +16.7 81 +23 +23 комфорт 1011.1 992.3
штиль 0 16 км ясно +19.4 +16.7 84 +21 +21 комфорт 1011.0 992.3 +19.4 +23.9
штиль 0 16 км ясно +19.4 +16.7 84 +21 +21 комфорт 1011.3 992.7
З 2 16 км ясно +20.0 +16.7 81 +23 +23 комфорт 1011.4 992.7
З 3 16 км ясно +22.2 +17.2 73 +27 +28 душно 1011.9 993.3
З 2 16 км ясно +25.6 +17.8 62 +30 +34 душно 1012.2 993.7
Местоположение метеостанции Corona Municipal Airport: широта 33.8977 долгота -117.6024 высота над уровнем моря 163 м.
В архиве по умолчанию представлена погода в Короне за последние 1-2 суток. Обновление информации о фактической погоде в базе происходит ежечасно! Архивные данные за месяц целиком и за предыдущие месяцы Вы можете получить, выбрав интересующий диапазон дат из раскрывающегося списка и нажав кнопку "Ввод!".
Внимание! Архив погоды МЕТАР в базе сайта по станциям, не включенным в климатический монитор, хранится не более 60 дней. Нет смысла пытаться выбрать более раннюю дату.
*Определитесь, кто Вы:
Внимание! Время в таблицах - местное (без учета летнего времени). Для получения всемирного времени необходимо вычесть поправку, которая равна -8 ч.
Смотрите также архив погоды в соседних городах и на ближайших метеорологических станциях:
Партнеры нашего сайта:      
Пояснения к столбцам:
  • Ветер - указаны скорость ветра в м/с - средняя за 10 мин, порывы в срок и между сроками (в фигурных скобках) и направление, откуда дует ветер: С - северный,
  • СВ - северо-восточный, В - восточный, ЮВ - юго-восточный, Ю - южный, ЮЗ - юго-западный, З - западный, СЗ - северо-западный.
  • Видимость - горизонтальная дальность видимости в метрах или километрах. При видимости от 1 до 10 км при отсутствии осадков обычно наблюдается дымка, при ухудшении видимости до 1 км и менее - туман. В сухую погоду видимость может ухудшаться дымом, пылью или мглою.
  • Явления - указаны атмосферные явления, наблюдавшиеся в срок или в последний час перед сроком; фигурными скобками обозначены явления, наблюдавшиеся между сроками (за 1-3 часа до срока); квадратными скобками обозначены град или гололедные отложения с указанием их диаметра в мм.
  • Облачность - указаны через наклонную черту общая и нижняя облачность в баллах и высота нижней границы облаков в метрах; квадратными скобками обозначены формы облаков: Ci - перистые, Cs - перисто-слоистые, Cc - перисто-кучевые, Ac - высококучевые, As - высокослоистые, Sc - слоисто-кучевые, Ns - слоисто-дождевые, Cu - кучевые, Cb - кучево-дождевые. Подробнее классификацию облаков см. в Атласе облаков (PDF).
  • T - Температура воздуха - температура, измеренная на высоте 2 м над землей.
  • Td - Температура точки росы - температура, при понижении до которой содержащийся в воздухе водяной пар достигнет насыщения.
  • f - Относительная влажность воздуха - влажноcть воздуха, измеренная на высоте 2 м над землей.
  • Te - Эффективная температура - температура, которую ощущает одетый по сезону человек в тени. Характеристика душности погоды. При расчете учитывается влияние влажности воздуха и скорости ветра на теплоощущения человека.
  • Tes - Эффективная температура на солнце - температура, которую ощущает человек, с поправкой на солнечный нагрев. Характеристика знойности погоды. Зависит от высоты солнца над горизонтом, облачности и скорости ветра. Ночью, в пасмурную погоду, а также при ветре 12 м/с и более поправка равна нулю.
  • P - Атмосферное давление - приведенное к уровню моря атмосферное давление.
  • Po - Атмосферное давление - измеренное на уровне метеостанции атмосферное давление.
  • Tmin - Минимальная температура - минимум температуры воздуха на высоте 2 м над землей.
  • Tmax - Максимальная температура - максимум температуры воздуха на высоте 2 м над землей.
  • R - Количество осадков - Количество выпавших осадков за период времени, мм. При наведении курсора мыши на число - период времени, за который выпало указанное количество осадков.
  • R24 - Количество осадков - Количество выпавших осадков за 24 часа, мм.
  • S - Снежный покров - Высота снежного покрова, см. При наведении курсора мыши на число - состояние снежного покрова и степень покрытия местности в баллах.